{"data":{"norad_id":55453,"epoch":"2026-09-20T14:28:59.738016Z","epoch_age_seconds":91489,"freshness":"FRESH","line1":"1 55453U 23015E   26263.60346919  .00000322  00000+0  21213-4 0  9999","line2":"2 55453  43.0021 307.7841 0001432 275.2376  84.8312 15.27578054200536","mean_motion":15.27578054,"eccentricity":0.0001432,"inclination_deg":43.0021,"raan_deg":307.7841,"arg_perigee_deg":275.2376,"mean_anomaly_deg":84.8312,"bstar":2.1213e-5,"rev_number":20053,"period_min":94.266868801193,"perigee_km":482.07240038652,"apogee_km":484.03744575329,"semimajor_km":6861.1919230699,"source":"CELESTRAK","updated_at":"2026-09-21T09:00:33.226209Z"}}